"Pseudo-MPEC" for P11WLdU

Created 2024 Aug 16 14:22:03 UT using Find_Orb

Click here for an explanation of pseudo-MPECs

 
 Astrometry: 
     P11WLdU  C2024 07 29.37734519 34 21.573-28 09 09.90   ~83BM 20.65GVNEOCPF52
     P11WLdU  C2024 07 29.43753119 34 38.394-28 20 00.70   ~83BM 20.67GVNEOCPF52
     P11WLdU* C2024 08 01.36126719 49 58.255-35 58 00.04   ~81Gq 21.00wXNEOCPF51
     P11WLdU  C2024 08 01.36773319 49 59.922-35 58 52.18   ~81Gq 20.74wXNEOCPF51
     P11WLdU  C2024 08 01.38065219 50 03.297-36 00 37.41   ~81Gq 21.09wXNEOCPF51
     P11WLdU  C2024 08 03.38410819 59 51.570-40 03 58.41   ~83B7 21.19wXNEOCPF52
     P11WLdU  C2024 08 03.39407519 59 53.994-40 05 03.62   ~83B7 21.46wXNEOCPF52

Station data:
(F51) Pan-STARRS 1, Haleakala  (N20.707234 W156.255910)  US/Hawaii.
   Observers J. Bulger, T. Lowe, A. Schultz, M. Willman. Measurers K.
   Chambers, S. Chastel, T. de Boer, L. Denneau, J. Fairlamb, H. Flewelling,
   M. Huber, C.-C. Lin, E. Magnier, Y. Ramanjooloo, R. Wainscoat, R. Weryk.
   1.8-m Ritchey-Chrétien + CCD.
(F52) Pan-STARRS 2, Haleakala  (N20.707382 W156.255910)  US/Hawaii.
   Observers J. Bulger, T. Dukes, T. Lowe, A. Schultz, M. Willman. Measurers
   K. Chambers, S. Chastel, T. de Boer, L. Denneau, J. Fairlamb, H.
   Flewelling, M. Huber, C.-C. Lin, E. Magnier, Y. Ramanjooloo, R. Wainscoat,
   R. Weryk. 1.8-m Ritchey-Chrétien + CCD.

Orbital elements:  P11WLdU
   Perihelion 2024 Jun 14.56453 +/- 0.153 TT = 13:32:55 (JD 2460476.06453)
Epoch 2024 Aug  3.0 TT = JDT 2460525.5   Earth MOID: 0.0670   Ma: 0.0527
M  29.27856604 +/- 0.33             (J2000 ecliptic)             AutoNEOCP
n   0.59225826 +/- 0.00493          Peri.  136.07762 +/- 0.12
a   1.40430668 +/- 0.0078           Node   123.54286 +/- 0.010
e   0.2683606 +/- 0.00384           Incl.   16.50459 +/- 0.15
P   1.664/607.831d         H 24.83  G  0.15   U  9.2
q 1.02744602 +/- 0.00032    Q 1.78116733 +/- 0.0153
From 7 observations 2024 July 29-Aug. 3; mean residual 0".17
Residuals in arcseconds: 
240729 F52  .03+  .26+    240801 F51  .21-  .26+    240803 F52  .01+  .14+    
240729 F52  .01+  .25-    240801 F51  .17+  .00     
240801 F51  .09-  .30-    240803 F52  .06+  .11-    

Ephemerides (geocentric):
Date (UTC) HH   RA             Dec           delta  r     elong  mag " sig PA
---- --------  ------------   ------------  ------ ------ -----  --- --------
2024 08 16 14  20 51 17.018   -52 51 05.25  .18204 1.1566 139.3 22.9 9.41  25
2024 08 16 15  20 51 24.779   -52 52 08.29  .18230 1.1568 139.3 22.9 9.46  25
2024 08 16 16  20 51 32.530   -52 53 11.00  .18256 1.1569 139.2 22.9 9.50  25
2024 08 16 17  20 51 40.269   -52 54 13.39  .18282 1.1571 139.2 22.9 9.55  25
2024 08 16 18  20 51 47.998   -52 55 15.46  .18308 1.1572 139.2 22.9 9.60  25
2024 08 16 19  20 51 55.715   -52 56 17.21  .18334 1.1574 139.1 22.9 9.65  25
2024 08 16 20  20 52 03.422   -52 57 18.64  .18359 1.1575 139.1 22.9 9.70  25
2024 08 16 21  20 52 11.118   -52 58 19.75  .18385 1.1577 139.1 22.9 9.75  24
2024 08 16 22  20 52 18.803   -52 59 20.55  .18411 1.1578 139.1 22.9 9.80  24
2024 08 16 23  20 52 26.477   -53 00 21.03  .18437 1.1580 139.0 22.9 9.85  24
2024 08 17 00  20 52 34.140   -53 01 21.20  .18463 1.1581 139.0 22.9 9.90  24
2024 08 17 01  20 52 41.793   -53 02 21.06  .18489 1.1583 139.0 22.9 9.95  24
2024 08 17 02  20 52 49.434   -53 03 20.60  .18515 1.1584 138.9 22.9 10.0  24
2024 08 17 03  20 52 57.065   -53 04 19.84  .18541 1.1586 138.9 22.9 10.0  24
2024 08 17 04  20 53 04.685   -53 05 18.76  .18567 1.1587 138.9 22.9 10.1  24
2024 08 17 05  20 53 12.294   -53 06 17.38  .18593 1.1589 138.8 22.9 10.2  24
2024 08 17 06  20 53 19.893   -53 07 15.69  .18619 1.1590 138.8 22.9 10.2  24
2024 08 17 07  20 53 27.481   -53 08 13.69  .18645 1.1592 138.8 22.9 10.3  24
2024 08 17 08  20 53 35.058   -53 09 11.39  .18671 1.1593 138.8 23.0 10.3  24
2024 08 17 09  20 53 42.624   -53 10 08.79  .18697 1.1595 138.7 23.0 10.4  24
2024 08 17 10  20 53 50.180   -53 11 05.88  .18723 1.1596 138.7 23.0 10.4  24
2024 08 17 11  20 53 57.725   -53 12 02.67  .18749 1.1598 138.7 23.0 10.5  24
2024 08 17 12  20 54 05.260   -53 12 59.16  .18775 1.1599 138.6 23.0 10.5  24
2024 08 17 13  20 54 12.783   -53 13 55.36  .18801 1.1601 138.6 23.0 10.6  24
2024 08 17 14  20 54 20.297   -53 14 51.25  .18827 1.1602 138.6 23.0 10.6  24
2024 08 17 15  20 54 27.799   -53 15 46.85  .18853 1.1604 138.6 23.0 10.7  24
2024 08 17 16  20 54 35.291   -53 16 42.15  .18880 1.1605 138.5 23.0 10.7  24
2024 08 17 17  20 54 42.772   -53 17 37.15  .18906 1.1607 138.5 23.0 10.8  24
2024 08 17 18  20 54 50.243   -53 18 31.87  .18932 1.1608 138.5 23.0 10.8  24
2024 08 17 19  20 54 57.704   -53 19 26.29  .18958 1.1610 138.4 23.0 10.9  24
2024 08 17 20  20 55 05.153   -53 20 20.41  .18984 1.1611 138.4 23.0 10.9  24
2024 08 17 21  20 55 12.593   -53 21 14.25  .19010 1.1613 138.4 23.0 11.0  24
2024 08 17 22  20 55 20.021   -53 22 07.80  .19036 1.1614 138.4 23.0 11.0  24
2024 08 17 23  20 55 27.440   -53 23 01.06  .19063 1.1616 138.3 23.0 11.1  24
2024 08 18 00  20 55 34.848   -53 23 54.03  .19089 1.1617 138.3 23.0 11.1  24
2024 08 18 01  20 55 42.245   -53 24 46.71  .19115 1.1619 138.3 23.0 11.2  24
2024 08 18 02  20 55 49.632   -53 25 39.11  .19141 1.1620 138.2 23.0 11.2  24
2024 08 18 03  20 55 57.008   -53 26 31.23  .19167 1.1622 138.2 23.0 11.3  24
2024 08 18 04  20 56 04.374   -53 27 23.06  .19193 1.1623 138.2 23.0 11.3  24
2024 08 18 05  20 56 11.730   -53 28 14.61  .19220 1.1625 138.2 23.0 11.4  24
2024 08 18 06  20 56 19.076   -53 29 05.88  .19246 1.1626 138.1 23.0 11.4  24
2024 08 18 07  20 56 26.411   -53 29 56.87  .19272 1.1628 138.1 23.0 11.5  24
2024 08 18 08  20 56 33.735   -53 30 47.57  .19298 1.1629 138.1 23.0 11.5  23
2024 08 18 09  20 56 41.050   -53 31 38.00  .19325 1.1631 138.0 23.0 11.6  23
2024 08 18 10  20 56 48.354   -53 32 28.16  .19351 1.1632 138.0 23.0 11.7  23
2024 08 18 11  20 56 55.647   -53 33 18.03  .19377 1.1634 138.0 23.1 11.7  23
2024 08 18 12  20 57 02.931   -53 34 07.63  .19404 1.1635 138.0 23.1 11.8  23
2024 08 18 13  20 57 10.204   -53 34 56.96  .19430 1.1637 137.9 23.1 11.8  23